Location: Ariel
(45.9570°N, 122.5700°W)
Time: 03:31:33
(UTC-07:00)

Transit 4A - Pass Details

Date: 28 July 2019
Orbit: 864 x 981 km, 66.8° (Epoch: 25 August)

Event Time Altitude Azimuth Distance (km) Brightness Sun altitude
Rises 05:42:59 0° 313° (NW) 3,691 10.8 -1.6°
Reaches altitude 10° 05:48:20 10° 350° (N) 2,731 10.6 -0.8°
Maximum altitude 05:49:46 11° 3° (N) 2,673 10.8 -0.6°
Drops below altitude 10° 05:51:12 10° 16° (NNE) 2,721 11.1 -0.4°
Sets 05:56:28 0° 53° (NE) 3,640 13.4 0.4°
